Location: Santa Teresa Spring
(37.2333°N, 121.7000°W)
Time: 06:10:48
(UTC-08:00)

ISS - Visible Passes

Search period start: 28 January 2015 00:00
Search period end: 07 February 2015 00:00
Orbit: 402 x 410 km, 51.6° (Epoch: 28 January)

Date Brightness Start Highest point End Pass type
(mag) Time Alt. Az. Time Alt. Az. Time Alt. Az.
28 Jan -0.7 04:54:47 20° ESE 04:54:47 20° ESE 04:56:01 10° ESE visible
28 Jan -1.1 06:27:30 11° W 06:29:01 14° SW 06:30:42 10° SSW visible
29 Jan -1.7 05:38:15 23° SSW 05:38:15 23° SSW 05:40:10 10° SSE visible
02 Feb -1.3 18:46:30 10° S 18:48:05 16° SE 18:48:05 16° SE visible
03 Feb -1.8 19:29:38 10° SW 19:31:36 34° SW 19:31:36 34° SW visible
04 Feb -2.8 18:37:52 10° SSW 18:40:59 43° SE 18:42:15 28° E visible
05 Feb -2.0 19:22:28 10° WSW 19:25:31 34° NNW 19:25:32 34° NNW visible
06 Feb -3.1 18:30:12 10° WSW 18:33:26 65° NW 18:35:59 15° NE visible
